sat.trackr.live / text

‹ back to catalog

STARLINK-36137

NORAD 67033 · 2025-294D

PAYLOAD ACTIVE UNKNOWN

§ Identity

Operator
Country
US
Launch date
2025-12-11
Launch site
AFETR
Launch vehicle
Mass (kg)
RCS (m²)

Purposes: comms

External: N2YO · Heavens-Above · Gunter

§ Orbital elements

Epoch: 2026-09-20T08:22:09.011424Z

Period
94.27 min
Inclination
43.0005°
Eccentricity
0.0001253
Mean motion
15.27585528 rev/d
Perigee alt
482.2 km
Apogee alt
483.9 km
Semi-major
6,861.2 km
B*
3.7511e-4
RAAN
18.4157°
Arg perigee
283.8525°
Mean anomaly
76.2187°
Rev number
4,457

§ Raw data

STARLINK-361371 67033U 25294D   26263.34871541  .00010076  00000+0  37511-3 0  99962 67033  43.0005  18.4157 0001253 283.8525  76.2187 15.27585528 44572

JSON: /api/v1/satellites/67033 · /tle

For live sub-satellite position, see the globe view (requires WebGL).

§ Visibility from observer

Set your observer location to see the next 7 days of passes ≥ 10°. The values pass through the URL so the page stays shareable.

No JS? Fill the form by hand. The geolocation button needs JavaScript.